EUTELSAT HOTBIRD 13F

Last updated on Mon Sep 07 2026 00:03:02 GMT+0000 (Coordinated Universal Time)

1 54048U 22134A 26249.59433501 .00000071 00000+0 00000+0 0 9992 2 54048 0.0628 292.6316 0001898 56.9636 223.0616 1.00274580 14191
UTC large
Height (km)
Speed (km/s)
/
Latitude / Longitude
Inclination (degrees)
Orbital Period (minutes)
Azimuth
Elevation
Range (km)
Doppler Factor

Next 0 passes for location: London (51.5072 / 0.1276)

No passes found over London.
EUTELSAT HOTBIRD 13F